Date,Time,Wetness (Wet Dry or Ice),Wind Speed (m/s),Temperature (C),Humidity (%),Pressure (mb),Radiation (W/m^2)
2019-05-27,05:20:00,DRY,3.67,12.67,25.7,772.00,1.3
2019-05-27,05:25:00,DRY,2.20,13.05,24.5,772.00,2.7
2019-05-27,05:30:00,DRY,3.93,13.37,23.3,772.00,2.5
2019-05-27,05:35:00,DRY,2.95,13.30,23.5,772.00,0.7
2019-05-27,05:40:00,DRY,3.13,13.37,23.7,772.00,1.4
2019-05-27,05:45:00,DRY,4.40,13.70,22.5,772.00,0.6
2019-05-27,05:50:00,DRY,4.23,13.53,22.0,772.00,1.5
2019-05-27,05:55:00,DRY,2.90,13.40,22.0,772.00,1.4
2019-05-27,06:00:00,DRY,3.57,13.27,21.7,772.00,1.9
2019-05-27,06:05:00,DRY,3.00,13.25,21.5,772.00,3.6
2019-05-27,06:10:00,DRY,3.00,13.03,21.7,772.00,4.9
2019-05-27,06:15:00,DRY,1.70,13.25,21.0,772.00,7.8
2019-05-27,06:20:00,DRY,2.53,13.07,21.3,772.00,12.2
2019-05-27,06:25:00,DRY,2.65,12.95,21.0,772.00,21.6
2019-05-27,06:30:00,DRY,3.67,12.87,21.0,772.00,46.3
2019-05-27,06:35:00,DRY,1.25,13.45,21.0,772.00,65.8
2019-05-27,06:40:00,DRY,1.90,13.93,19.7,772.00,89.0
2019-05-27,06:45:00,DRY,2.60,13.80,19.0,772.00,109.3
2019-05-27,06:50:00,DRY,2.27,13.93,19.7,772.00,126.5
2019-05-27,06:55:00,DRY,3.30,13.85,19.5,772.00,144.6
2019-05-27,07:00:00,DRY,2.10,13.73,19.3,772.00,164.0
2019-05-27,07:05:00,DRY,1.65,13.70,19.5,772.00,183.8
2019-05-27,07:10:00,DRY,1.03,13.37,19.3,772.00,204.2
2019-05-27,07:15:00,DRY,1.35,13.55,18.5,772.00,224.4
2019-05-27,07:20:00,DRY,1.57,13.43,18.0,772.00,244.8
2019-05-27,07:25:00,DRY,1.30,13.50,17.5,772.00,266.4
2019-05-27,07:30:00,DRY,0.97,13.57,17.7,772.67,286.8
2019-05-27,07:35:00,DRY,0.80,13.60,16.5,773.00,308.5
2019-05-27,07:40:00,DRY,0.87,13.70,16.7,772.33,328.9
2019-05-27,07:45:00,DRY,1.40,13.95,16.0,773.00,349.7
2019-05-27,07:50:00,DRY,0.63,13.57,16.3,772.67,371.3
2019-05-27,07:55:00,DRY,1.35,13.70,15.5,773.00,392.8
2019-05-27,08:00:00,DRY,1.10,13.73,15.3,773.00,412.8
2019-05-27,08:05:00,DRY,1.30,13.95,14.0,773.00,434.2
2019-05-27,08:10:00,DRY,1.37,14.00,14.7,773.00,455.4
2019-05-27,08:15:00,DRY,1.60,13.90,14.5,773.00,476.9
2019-05-27,08:20:00,DRY,1.70,14.23,14.3,773.00,496.1
2019-05-27,08:25:00,DRY,3.35,14.25,14.0,773.00,515.3
2019-05-27,08:30:00,DRY,2.37,14.40,15.0,773.00,535.8
2019-05-27,08:35:00,DRY,2.40,13.95,14.5,773.00,555.8
2019-05-27,08:40:00,DRY,1.50,13.90,15.0,773.00,576.0
2019-05-27,08:45:00,DRY,1.30,14.05,16.0,773.00,595.9
2019-05-27,08:50:00,DRY,1.80,14.10,15.3,773.00,613.5
2019-05-27,08:55:00,DRY,1.30,14.00,15.0,773.00,633.2
2019-05-27,09:00:00,DRY,2.20,13.90,17.0,773.00,651.9
2019-05-27,09:05:00,DRY,1.40,13.80,16.5,773.00,670.8
2019-05-27,09:10:00,DRY,2.27,13.97,16.3,773.00,688.2
2019-05-27,09:15:00,DRY,1.75,13.35,17.5,773.00,704.9
2019-05-27,09:20:00,DRY,1.87,13.37,17.3,773.00,723.8
2019-05-27,09:25:00,DRY,2.15,13.80,17.5,773.00,742.0
2019-05-27,09:30:00,DRY,1.47,13.63,17.3,773.00,757.7
2019-05-27,09:35:00,DRY,1.10,13.80,16.5,773.00,774.2
2019-05-27,09:40:00,DRY,2.00,13.33,17.7,773.00,791.2
2019-05-27,09:45:00,DRY,0.60,14.20,18.0,773.00,807.0
2019-05-27,09:50:00,DRY,2.60,13.70,17.0,773.00,825.0
2019-05-27,09:55:00,DRY,1.60,13.60,18.0,773.00,839.4
2019-05-27,10:00:00,DRY,2.50,13.47,18.7,773.00,853.0
2019-05-27,10:05:00,DRY,3.00,13.60,19.0,773.00,869.0
2019-05-27,10:10:00,DRY,2.57,13.13,18.3,773.00,881.4
2019-05-27,10:15:00,DRY,1.35,13.15,19.5,773.00,895.7
2019-05-27,10:20:00,DRY,2.30,13.50,19.3,773.00,907.3
2019-05-27,10:25:00,DRY,2.35,13.15,20.0,773.00,922.3
2019-05-27,10:30:00,DRY,2.27,13.37,19.3,773.00,936.7
2019-05-27,10:35:00,DRY,3.15,13.40,19.5,773.00,949.0
2019-05-27,10:40:00,DRY,2.77,13.70,21.0,773.00,961.5
2019-05-27,10:45:00,DRY,2.30,13.55,21.0,773.00,972.5
2019-05-27,10:50:00,DRY,3.40,13.33,23.3,773.00,983.9
2019-05-27,10:55:00,DRY,1.50,12.90,25.5,773.00,995.6
2019-05-27,11:00:00,DRY,2.83,13.27,24.3,773.00,1005.0
2019-05-27,11:05:00,DRY,2.60,13.05,26.0,773.50,1015.7
2019-05-27,11:10:00,DRY,3.93,13.17,26.3,773.00,1025.7
2019-05-27,11:15:00,DRY,4.60,13.10,26.0,773.00,1033.8
2019-05-27,11:20:00,DRY,4.83,13.30,27.0,773.33,1042.5
2019-05-27,11:25:00,DRY,2.65,13.30,27.0,774.00,1051.2
2019-05-27,11:30:00,DRY,3.23,13.27,27.7,773.33,1059.7
2019-05-27,11:35:00,DRY,4.00,13.05,26.5,773.00,1067.4
2019-05-27,11:40:00,DRY,4.17,12.63,28.7,773.00,1074.7
2019-05-27,11:45:00,DRY,3.15,13.35,27.5,773.50,1081.7
2019-05-27,11:50:00,DRY,2.60,13.33,27.0,773.33,1088.4
2019-05-27,11:55:00,DRY,5.65,13.05,29.0,773.00,1092.8
2019-05-27,12:00:00,DRY,3.10,13.63,27.0,773.00,1100.7
2019-05-27,12:05:00,DRY,3.95,13.20,28.0,773.00,1104.3
2019-05-27,12:10:00,DRY,2.33,13.57,29.0,773.00,1109.1
2019-05-27,12:15:00,DRY,4.40,13.70,28.0,773.00,1113.6
2019-05-27,12:20:00,DRY,5.70,13.30,28.0,773.00,1116.1
2019-05-27,12:25:00,DRY,6.40,13.20,31.0,774.00,1118.7
2019-05-27,12:30:00,DRY,3.43,13.17,32.0,773.33,1121.6
2019-05-27,12:35:00,DRY,4.05,13.65,33.5,773.00,1124.2
2019-05-27,12:40:00,DRY,2.37,13.40,31.3,773.00,1124.8
2019-05-27,12:45:00,DRY,2.45,13.20,31.5,773.00,1127.0
2019-05-27,12:50:00,DRY,2.87,13.70,32.3,773.00,1125.8
2019-05-27,12:55:00,DRY,4.80,13.30,30.5,773.00,1130.9
2019-05-27,13:00:00,DRY,2.63,13.30,36.0,773.00,1128.4
2019-05-27,13:05:00,DRY,3.30,14.10,31.0,773.00,1129.4
2019-05-27,13:10:00,DRY,2.90,13.10,35.3,773.00,1129.9
2019-05-27,13:15:00,DRY,3.30,13.70,31.5,773.00,1129.2
2019-05-27,13:20:00,DRY,3.10,14.03,33.3,773.33,1130.9
2019-05-27,13:25:00,DRY,3.90,13.60,37.0,773.00,1129.4
2019-05-27,13:30:00,DRY,4.90,13.00,43.0,773.00,1127.7
2019-05-27,13:35:00,DRY,5.90,12.90,36.0,773.00,1125.1
2019-05-27,13:40:00,DRY,3.17,13.20,36.0,773.00,1121.5
2019-05-27,13:45:00,DRY,2.95,13.60,35.0,773.00,1119.0
2019-05-27,13:50:00,DRY,2.70,14.13,35.3,773.00,1118.5
2019-05-27,13:55:00,DRY,2.95,14.15,38.5,773.00,1114.0
2019-05-27,14:00:00,DRY,4.13,13.83,30.7,773.00,1112.0
2019-05-27,14:05:00,DRY,2.65,12.90,43.0,773.00,1106.2
2019-05-27,14:10:00,DRY,1.90,13.43,36.0,773.00,1101.6
2019-05-27,14:15:00,DRY,2.40,13.85,41.5,773.00,1098.2
2019-05-27,14:20:00,DRY,2.17,14.27,37.7,773.00,1090.0
2019-05-27,14:25:00,DRY,3.75,13.60,41.5,773.00,1082.2
2019-05-27,14:30:00,DRY,2.30,13.03,37.0,773.00,1077.9
2019-05-27,14:35:00,DRY,1.70,13.20,41.0,773.00,1070.8
2019-05-27,14:40:00,DRY,3.70,12.73,41.7,773.00,1063.1
2019-05-27,14:45:00,DRY,1.95,12.75,41.0,773.00,1054.0
2019-05-27,14:50:00,DRY,3.13,13.03,40.3,773.00,1046.2
2019-05-27,14:55:00,DRY,5.80,12.65,41.5,773.00,1036.7
2019-05-27,15:00:00,DRY,1.60,12.47,47.3,773.00,1020.7
2019-05-27,15:05:00,DRY,3.70,12.35,41.0,773.00,1014.1
2019-05-27,15:10:00,DRY,3.23,12.83,41.0,773.00,1003.2
2019-05-27,15:15:00,DRY,5.00,13.55,40.0,773.00,993.6
2019-05-27,15:20:00,DRY,2.55,12.80,43.0,773.00,981.0
2019-05-27,15:25:00,DRY,3.25,12.70,44.0,773.00,972.8
2019-05-27,15:30:00,DRY,3.40,13.23,40.3,773.00,958.0
2019-05-27,15:35:00,DRY,2.80,13.00,34.0,773.00,949.1
2019-05-27,15:40:00,DRY,3.00,13.13,37.7,773.00,935.4
2019-05-27,15:45:00,DRY,2.10,12.85,38.5,773.00,917.5
2019-05-27,15:50:00,DRY,1.47,12.70,37.0,773.00,909.2
2019-05-27,15:55:00,DRY,1.70,13.15,38.5,773.00,894.2
2019-05-27,16:00:00,DRY,4.33,12.97,33.7,773.00,878.7
2019-05-27,16:05:00,DRY,2.55,12.75,38.0,773.00,864.5
2019-05-27,16:10:00,DRY,3.43,12.97,35.0,773.00,850.4
2019-05-27,16:15:00,DRY,3.15,13.40,35.5,773.00,831.6
2019-05-27,16:20:00,DRY,2.20,13.27,31.7,773.00,816.0
2019-05-27,16:25:00,DRY,4.40,13.50,34.0,773.00,799.4
2019-05-27,16:30:00,DRY,2.77,12.93,32.3,773.00,786.9
2019-05-27,16:35:00,DRY,2.65,13.35,31.0,773.00,771.9
2019-05-27,16:40:00,DRY,2.60,13.57,32.3,773.00,751.0
2019-05-27,16:45:00,DRY,2.75,12.95,34.5,773.00,732.6
2019-05-27,16:50:00,DRY,2.43,13.17,33.0,773.00,714.7
2019-05-27,16:55:00,DRY,4.25,12.85,36.5,773.00,700.2
2019-05-27,17:00:00,DRY,4.10,12.63,32.3,773.00,678.4
2019-05-27,17:05:00,DRY,2.45,12.95,37.0,773.00,667.5
2019-05-27,17:10:00,DRY,3.00,12.43,33.3,773.00,647.7
2019-05-27,17:15:00,DRY,2.20,12.35,32.5,773.00,630.4
2019-05-27,17:20:00,DRY,2.63,12.53,34.0,773.00,607.1
2019-05-27,17:25:00,DRY,2.35,12.85,33.5,773.00,588.4
2019-05-27,17:30:00,DRY,3.93,12.60,32.3,773.00,568.8
2019-05-27,17:35:00,DRY,4.40,12.75,31.5,773.00,551.5
2019-05-27,17:40:00,DRY,2.23,12.63,32.3,773.00,533.6
2019-05-27,17:45:00,DRY,4.00,12.60,33.5,773.00,513.7
2019-05-27,17:50:00,DRY,3.60,12.33,34.0,773.00,489.9
2019-05-27,17:55:00,DRY,3.30,12.10,33.5,773.00,471.5
2019-05-27,18:00:00,DRY,4.00,12.20,35.7,773.00,449.1
2019-05-27,18:05:00,DRY,2.50,12.15,33.5,773.00,422.1
2019-05-27,18:10:00,DRY,3.03,12.27,32.7,773.00,402.4
2019-05-27,18:15:00,DRY,4.90,11.80,34.0,773.00,384.4
2019-05-27,18:20:00,DRY,3.73,11.93,33.7,773.00,362.8
2019-05-27,18:25:00,DRY,2.80,11.60,34.0,773.00,342.8
2019-05-27,18:30:00,DRY,2.37,11.70,32.7,773.00,319.8
2019-05-27,18:35:00,DRY,3.45,11.70,33.5,773.00,300.0
2019-05-27,18:40:00,DRY,1.53,11.97,34.7,773.00,279.8
2019-05-27,18:45:00,DRY,1.55,12.10,33.5,773.00,257.4
2019-05-27,18:50:00,DRY,2.17,11.93,34.0,773.00,237.0
2019-05-27,18:55:00,DRY,2.35,11.95,32.5,773.00,209.1
2019-05-27,19:00:00,DRY,2.63,11.77,33.0,773.00,196.0
2019-05-27,19:05:00,DRY,1.60,11.95,32.0,773.00,178.8
2019-05-27,19:10:00,DRY,3.33,11.67,33.3,773.00,156.2
2019-05-27,19:15:00,DRY,1.65,11.60,33.0,773.00,139.7
2019-05-27,19:20:00,DRY,1.77,11.53,32.7,773.00,112.0
2019-05-27,19:25:00,DRY,3.40,11.45,34.0,773.00,85.1
2019-05-27,19:30:00,DRY,4.10,11.27,32.3,773.00,72.1
2019-05-27,19:35:00,DRY,1.70,11.45,31.5,773.00,55.5
2019-05-27,19:40:00,DRY,1.00,11.33,32.0,773.00,44.2
2019-05-27,19:45:00,DRY,1.55,11.15,31.5,773.00,30.1
2019-05-27,19:50:00,DRY,1.73,11.03,31.3,773.00,20.7
2019-05-27,19:55:00,DRY,2.10,11.00,31.0,773.00,13.8
2019-05-27,20:00:00,DRY,1.20,10.83,31.0,773.00,8.8
2019-05-27,20:05:00,DRY,2.30,11.00,31.0,773.00,6.4
2019-05-27,20:10:00,DRY,2.27,10.93,30.0,773.00,4.2
2019-05-27,20:15:00,DRY,2.80,10.80,30.0,773.00,3.1
2019-05-27,20:20:00,DRY,4.17,11.07,29.7,773.00,2.1
2019-05-27,20:25:00,DRY,1.25,11.60,29.0,773.00,2.2
2019-05-27,20:30:00,DRY,2.47,11.63,28.3,773.00,1.7
2019-05-27,20:35:00,DRY,2.90,11.35,28.0,773.00,1.7
2019-05-27,20:40:00,DRY,2.20,11.53,28.7,773.00,1.5
2019-05-27,20:45:00,DRY,2.55,11.35,27.5,773.00,0.5
2019-05-27,20:50:00,DRY,4.30,11.35,28.0,773.00,1.4
2019-05-27,20:55:00,DRY,1.65,11.65,28.0,773.00,1.1
2019-05-27,21:00:00,DRY,2.87,11.47,27.7,773.00,0.9
2019-05-27,21:05:00,DRY,2.10,11.30,28.0,773.00,1.6
2019-05-27,21:10:00,DRY,2.10,11.80,28.7,773.67,1.2
2019-05-27,21:15:00,DRY,3.30,12.25,28.0,774.00,1.3
2019-05-27,21:20:00,DRY,2.83,11.70,28.7,774.00,1.1
2019-05-27,21:25:00,DRY,3.40,12.40,28.5,774.00,0.9
2019-05-27,21:30:00,DRY,2.57,12.23,28.3,774.00,1.3
2019-05-27,21:35:00,DRY,2.25,12.25,30.0,774.00,1.4
2019-05-27,21:40:00,DRY,3.20,12.13,29.0,774.00,1.2
2019-05-27,21:45:00,DRY,1.50,13.00,28.0,774.00,0.7
2019-05-27,21:50:00,DRY,1.83,12.47,28.7,774.00,1.6
2019-05-27,21:55:00,DRY,2.60,11.90,29.5,774.00,1.4
2019-05-27,22:00:00,DRY,1.80,12.63,28.3,774.00,1.6
2019-05-27,22:05:00,DRY,1.25,12.45,29.0,774.00,0.8
2019-05-27,22:10:00,DRY,2.03,12.33,29.3,774.00,1.3
2019-05-27,22:15:00,DRY,3.65,12.55,28.5,774.00,1.2
2019-05-27,22:20:00,DRY,1.67,12.90,27.7,774.00,1.3
2019-05-27,22:25:00,DRY,2.55,12.10,29.5,774.00,0.4
2019-05-27,22:30:00,DRY,1.50,11.53,30.7,774.00,0.7
2019-05-27,22:35:00,DRY,0.90,12.00,29.0,774.00,1.4
2019-05-27,22:40:00,DRY,2.67,11.70,30.0,774.00,1.7
2019-05-27,22:45:00,DRY,2.30,11.90,30.0,774.00,0.6
2019-05-27,22:50:00,DRY,1.93,11.50,31.3,774.00,0.7
2019-05-27,22:55:00,DRY,3.05,11.65,30.5,774.00,0.3
2019-05-27,23:00:00,DRY,2.00,11.85,30.0,774.00,1.4
2019-05-27,23:05:00,DRY,3.70,11.55,30.5,774.00,1.4
2019-05-27,23:10:00,DRY,1.73,11.57,30.3,774.00,1.3
2019-05-27,23:15:00,DRY,2.85,11.30,32.0,774.00,1.6
2019-05-27,23:20:00,DRY,2.03,11.27,30.3,774.00,0.7
2019-05-27,23:25:00,DRY,1.30,11.50,29.5,774.00,0.8
2019-05-27,23:30:00,DRY,1.97,11.70,29.0,774.00,1.5
2019-05-27,23:35:00,DRY,1.90,11.55,28.5,774.00,1.4
2019-05-27,23:40:00,DRY,2.63,11.27,30.7,774.00,1.5
2019-05-27,23:45:00,DRY,3.30,11.85,26.0,774.00,1.0
2019-05-27,23:50:00,DRY,2.03,12.00,27.0,774.00,1.5
2019-05-27,23:55:00,DRY,2.45,11.90,26.5,774.00,1.2
2019-05-28,00:00:00,DRY,2.17,11.70,28.0,774.00,2.1
2019-05-28,00:05:00,DRY,1.90,11.90,25.5,774.00,0.6
2019-05-28,00:10:00,DRY,2.40,11.33,28.3,774.00,1.2
2019-05-28,00:15:00,DRY,1.95,11.90,25.0,774.00,1.6
2019-05-28,00:20:00,DRY,2.00,12.40,23.7,773.67,1.6
2019-05-28,00:25:00,DRY,2.50,12.05,23.5,774.00,0.9
2019-05-28,00:30:00,DRY,1.73,12.87,21.7,773.67,2.1
2019-05-28,00:35:00,DRY,1.90,12.70,23.5,773.50,1.2
2019-05-28,00:40:00,DRY,2.50,11.60,27.0,773.33,1.1
2019-05-28,00:45:00,DRY,2.45,12.50,23.0,774.00,0.8
2019-05-28,00:50:00,DRY,2.17,12.20,24.0,773.67,1.7
2019-05-28,00:55:00,DRY,1.80,12.15,25.0,773.00,1.8
2019-05-28,01:00:00,DRY,1.73,12.10,25.0,773.67,1.2
2019-05-28,01:05:00,DRY,1.35,12.30,23.5,773.50,1.4
2019-05-28,01:10:00,DRY,1.77,12.37,24.3,773.00,1.4
2019-05-28,01:15:00,DRY,1.75,13.05,21.5,773.00,0.6
2019-05-28,01:20:00,DRY,1.90,12.80,22.7,773.00,1.6
2019-05-28,01:25:00,DRY,1.30,12.80,21.5,773.00,1.2
2019-05-28,01:30:00,DRY,1.13,12.53,23.3,773.00,0.4
2019-05-28,01:35:00,DRY,0.45,12.05,24.5,773.00,0.9
2019-05-28,01:40:00,DRY,1.20,12.20,24.0,773.00,2.0
2019-05-28,01:45:00,DRY,0.75,12.25,23.5,773.00,0.6
2019-05-28,01:50:00,DRY,1.40,12.70,23.0,773.00,1.2
2019-05-28,01:55:00,DRY,1.55,13.00,22.0,773.00,1.8
2019-05-28,02:00:00,DRY,0.60,13.03,22.7,773.00,1.0
2019-05-28,02:05:00,DRY,1.20,12.80,22.0,773.00,2.0
2019-05-28,02:10:00,DRY,1.47,13.00,21.7,773.00,1.4
2019-05-28,02:15:00,DRY,1.65,12.80,22.0,773.00,1.0
2019-05-28,02:20:00,DRY,2.07,12.63,22.7,773.00,1.9
2019-05-28,02:25:00,DRY,1.70,12.90,21.0,773.00,1.5
2019-05-28,02:30:00,DRY,2.03,13.17,19.7,773.00,0.8
2019-05-28,02:35:00,DRY,0.95,13.10,19.5,773.00,1.4
2019-05-28,02:40:00,DRY,1.27,13.20,19.0,773.00,1.8
2019-05-28,02:45:00,DRY,1.15,12.95,19.0,773.00,0.6
2019-05-28,02:50:00,DRY,1.03,13.00,18.0,773.00,1.1
2019-05-28,02:55:00,DRY,1.10,13.25,16.0,773.00,0.8
2019-05-28,03:00:00,DRY,1.30,13.30,16.3,773.00,0.7
2019-05-28,03:05:00,DRY,0.50,12.90,17.5,773.00,1.1
2019-05-28,03:10:00,DRY,0.77,12.47,17.3,773.00,1.1
2019-05-28,03:15:00,DRY,1.45,12.10,18.5,773.00,1.4
2019-05-28,03:20:00,DRY,2.07,11.90,18.7,773.00,1.6
2019-05-28,03:25:00,DRY,2.45,11.90,17.0,773.00,0.6
2019-05-28,03:30:00,DRY,1.83,12.13,17.3,773.00,1.2
2019-05-28,03:35:00,DRY,1.60,11.90,18.0,773.00,0.9
2019-05-28,03:40:00,DRY,1.60,11.93,19.3,773.00,2.1
2019-05-28,03:45:00,DRY,3.35,11.55,23.0,773.00,1.6
2019-05-28,03:50:00,DRY,2.93,11.17,24.0,773.00,1.4
2019-05-28,03:55:00,DRY,3.20,11.25,24.0,773.00,0.7
2019-05-28,04:00:00,DRY,2.93,11.00,23.7,773.00,1.3
2019-05-28,04:05:00,DRY,4.95,11.05,25.0,773.00,1.1
2019-05-28,04:10:00,DRY,3.93,10.93,25.0,773.00,0.8
2019-05-28,04:15:00,DRY,2.40,10.80,27.0,773.00,0.1
2019-05-28,04:20:00,DRY,4.70,10.57,29.7,773.00,1.5
2019-05-28,04:25:00,DRY,5.35,10.75,29.5,773.00,1.0
2019-05-28,04:30:00,DRY,3.87,10.83,29.3,773.00,1.4
2019-05-28,04:35:00,DRY,3.25,10.90,29.5,773.00,1.2
2019-05-28,04:40:00,DRY,3.20,10.60,28.0,773.00,1.3
2019-05-28,04:45:00,DRY,2.65,10.55,29.0,773.00,0.8
2019-05-28,04:50:00,DRY,4.03,10.63,28.7,773.00,1.0
2019-05-28,04:55:00,DRY,2.45,10.65,28.5,773.00,1.0
2019-05-28,05:00:00,DRY,2.57,10.40,28.3,773.00,1.7
2019-05-28,05:05:00,DRY,5.30,10.45,27.0,773.00,0.8
2019-05-28,05:10:00,DRY,2.47,10.40,27.7,773.00,2.1
2019-05-28,05:15:00,DRY,4.40,10.55,24.5,773.00,0.9
2019-05-28,05:20:00,DRY,2.07,10.50,22.0,773.00,0.8
2019-05-28,05:25:00,DRY,2.60,10.45,18.5,773.00,1.4
2019-05-28,05:30:00,DRY,3.60,10.57,16.0,773.00,1.1
2019-05-28,05:35:00,DRY,4.70,10.60,16.5,773.00,1.2
2019-05-28,05:40:00,DRY,3.77,10.57,14.7,773.00,1.1
2019-05-28,05:45:00,DRY,2.30,10.70,14.0,773.00,1.0
2019-05-28,05:50:00,DRY,3.67,10.70,14.7,773.00,1.0
2019-05-28,05:55:00,DRY,3.05,10.85,15.0,773.00,1.0
2019-05-28,06:00:00,DRY,4.20,10.63,16.3,773.00,1.9
2019-05-28,06:05:00,DRY,4.15,10.70,15.0,773.00,3.0
2019-05-28,06:10:00,DRY,5.27,10.63,14.7,773.00,4.7
2019-05-28,06:15:00,DRY,3.15,10.75,13.5,773.00,7.8
2019-05-28,06:20:00,DRY,4.07,10.87,12.7,773.00,13.9
2019-05-28,06:25:00,DRY,4.20,11.00,12.0,773.00,20.2
2019-05-28,06:30:00,DRY,2.43,11.33,10.7,773.00,48.2
2019-05-28,06:35:00,DRY,2.95,11.55,10.0,773.00,69.5
2019-05-28,06:40:00,DRY,2.70,11.83,10.0,773.00,92.4
2019-05-28,06:45:00,DRY,1.75,12.10,10.0,773.00,113.0
2019-05-28,06:50:00,DRY,1.50,12.13,10.3,773.00,131.5
2019-05-28,06:55:00,DRY,1.85,12.30,10.0,773.00,149.9
2019-05-28,07:00:00,DRY,3.13,12.70,9.0,773.00,169.2
2019-05-28,07:05:00,DRY,2.30,12.90,9.0,773.00,188.9
2019-05-28,07:10:00,DRY,2.00,13.20,8.7,773.00,208.9
2019-05-28,07:15:00,DRY,3.05,13.05,9.0,773.00,230.4
2019-05-28,07:20:00,DRY,3.07,12.97,9.0,773.00,251.7
2019-05-28,07:25:00,DRY,2.35,13.10,9.0,773.00,272.6
2019-05-28,07:30:00,DRY,3.10,13.03,9.3,773.00,294.7
2019-05-28,07:35:00,DRY,4.20,13.35,9.0,773.00,315.6
2019-05-28,07:40:00,DRY,3.33,13.37,9.3,773.00,337.1
2019-05-28,07:45:00,DRY,3.90,13.40,9.0,773.00,358.0
2019-05-28,07:50:00,DRY,3.20,13.43,9.0,773.00,379.1
2019-05-28,07:55:00,DRY,3.70,13.70,9.0,773.00,400.5
2019-05-28,08:00:00,DRY,2.23,13.83,9.3,773.00,421.7
2019-05-28,08:05:00,DRY,4.45,13.90,9.0,773.50,443.4
2019-05-28,08:10:00,DRY,2.87,14.10,9.7,774.00,464.8
2019-05-28,08:15:00,DRY,2.65,14.25,10.0,774.00,484.4
2019-05-28,08:20:00,DRY,3.27,14.53,10.0,774.00,505.4
2019-05-28,08:25:00,DRY,4.05,14.50,9.5,774.00,526.0
2019-05-28,08:30:00,DRY,3.30,14.77,10.7,773.67,546.6
2019-05-28,08:35:00,DRY,2.55,14.60,11.0,774.00,566.9
2019-05-28,08:40:00,DRY,4.30,14.30,10.0,774.00,586.8
2019-05-28,08:45:00,DRY,4.30,14.05,10.5,774.00,606.2
2019-05-28,08:50:00,DRY,4.10,13.87,12.3,774.00,626.0
2019-05-28,08:55:00,DRY,6.05,13.60,12.5,774.00,645.1
2019-05-28,09:00:00,DRY,4.13,13.93,13.0,774.00,663.3
2019-05-28,09:05:00,DRY,4.70,13.75,14.5,774.00,682.0
2019-05-28,09:10:00,DRY,3.83,13.90,14.0,774.00,699.1
2019-05-28,09:15:00,DRY,4.35,14.00,14.5,774.00,718.2
2019-05-28,09:20:00,DRY,4.23,13.73,17.3,774.00,736.4
2019-05-28,09:25:00,DRY,3.80,13.85,17.5,774.00,752.8
2019-05-28,09:30:00,DRY,3.03,14.20,18.0,774.00,769.9
2019-05-28,09:35:00,DRY,3.25,14.30,18.0,774.00,786.9
2019-05-28,09:40:00,DRY,4.63,14.00,18.0,774.00,803.3
2019-05-28,09:45:00,DRY,4.55,14.10,18.5,774.00,821.0
2019-05-28,09:50:00,DRY,4.17,14.00,17.3,774.00,836.2
2019-05-28,09:55:00,DRY,3.65,14.50,16.5,774.00,849.8
2019-05-28,10:00:00,DRY,4.83,14.23,17.7,774.00,864.2
2019-05-28,10:05:00,DRY,4.40,14.30,17.5,774.00,880.3
2019-05-28,10:10:00,DRY,3.17,14.93,17.3,774.00,894.1
2019-05-28,10:15:00,DRY,4.40,14.80,18.5,774.00,909.6
2019-05-28,10:20:00,DRY,4.47,14.67,17.3,774.00,921.5
2019-05-28,10:25:00,DRY,4.15,14.75,16.5,774.00,937.1
2019-05-28,10:30:00,DRY,3.23,14.67,17.3,774.00,948.5
2019-05-28,10:35:00,DRY,4.20,14.70,17.5,774.00,962.5
2019-05-28,10:40:00,DRY,3.40,14.80,18.3,774.00,973.1
2019-05-28,10:45:00,DRY,3.50,15.10,17.5,774.00,985.7
2019-05-28,10:50:00,DRY,4.10,14.47,17.7,774.00,997.8
2019-05-28,10:55:00,DRY,2.50,14.80,18.5,774.00,1009.0
2019-05-28,11:00:00,DRY,3.23,15.07,19.3,774.00,1019.3
2019-05-28,11:05:00,DRY,5.45,15.15,18.0,774.00,1030.2
2019-05-28,11:10:00,DRY,4.00,14.90,17.7,774.00,1039.2
2019-05-28,11:15:00,DRY,4.45,15.10,19.0,774.00,1047.2
2019-05-28,11:20:00,DRY,3.20,15.53,19.0,774.00,1057.5
2019-05-28,11:25:00,DRY,3.20,15.25,19.5,774.00,1068.7
2019-05-28,11:30:00,DRY,4.33,15.57,20.0,774.00,1073.4
2019-05-28,11:35:00,DRY,1.95,15.50,22.0,774.00,1079.4
2019-05-28,11:40:00,DRY,1.87,15.27,25.0,774.00,1089.1
2019-05-28,11:45:00,DRY,1.60,14.95,24.5,774.00,1094.4
2019-05-28,11:50:00,DRY,1.90,15.63,24.3,774.00,1101.0
2019-05-28,11:55:00,DRY,3.00,15.95,23.0,774.50,1106.9
2019-05-28,12:00:00,DRY,1.43,16.63,24.7,774.00,1114.0
2019-05-28,12:05:00,DRY,1.20,15.90,22.5,774.00,1117.3
2019-05-28,12:10:00,DRY,1.57,15.53,27.0,774.00,1123.3
2019-05-28,12:15:00,DRY,1.50,15.10,25.5,774.00,1125.1
2019-05-28,12:20:00,DRY,1.53,15.33,25.0,774.00,1131.1
2019-05-28,12:25:00,DRY,1.05,15.80,21.5,774.00,1128.7
2019-05-28,12:30:00,DRY,1.67,15.97,21.3,774.00,1138.4
2019-05-28,12:35:00,DRY,1.75,15.95,25.0,774.00,1136.9
2019-05-28,12:40:00,DRY,1.37,16.70,24.0,774.00,1138.4
2019-05-28,12:45:00,DRY,0.65,17.25,22.0,774.00,1143.6
2019-05-28,12:50:00,DRY,1.07,16.73,27.0,774.00,1142.0
2019-05-28,12:55:00,DRY,1.45,17.25,26.5,774.00,1141.0
2019-05-28,13:00:00,DRY,2.10,17.00,22.7,774.00,1142.5
2019-05-28,13:05:00,DRY,2.75,17.35,24.0,774.00,1143.2
2019-05-28,13:10:00,DRY,2.13,16.97,27.0,774.00,1140.2
2019-05-28,13:15:00,DRY,3.10,17.00,28.5,774.00,1140.8
2019-05-28,13:20:00,DRY,2.77,17.33,28.0,774.00,1140.2
2019-05-28,13:25:00,DRY,3.40,17.00,29.5,774.00,1138.5
2019-05-28,13:30:00,DRY,0.60,17.40,28.0,774.00,1140.6
2019-05-28,13:35:00,DRY,3.10,17.00,29.0,774.00,1137.8
2019-05-28,13:40:00,DRY,3.07,17.57,27.0,774.00,1131.7
2019-05-28,13:45:00,DRY,1.95,16.65,30.0,774.00,1127.7
2019-05-28,13:50:00,DRY,1.97,16.30,31.3,774.00,1127.8
2019-05-28,13:55:00,DRY,2.75,17.10,29.0,774.00,1125.0
2019-05-28,14:00:00,DRY,1.80,16.53,30.3,774.00,1122.4
2019-05-28,14:05:00,DRY,2.45,16.95,29.5,774.00,1114.9
2019-05-28,14:10:00,DRY,3.17,17.37,28.0,774.00,1112.1
2019-05-28,14:15:00,DRY,2.10,16.75,28.0,774.00,1106.4
2019-05-28,14:20:00,DRY,3.27,16.87,29.3,774.00,1103.4
2019-05-28,14:25:00,DRY,2.55,17.00,31.0,774.00,1096.5
2019-05-28,14:30:00,DRY,2.77,16.47,33.3,774.00,1088.3
2019-05-28,14:35:00,DRY,2.55,16.75,31.0,774.00,1081.3
2019-05-28,14:40:00,DRY,0.93,16.40,32.3,774.00,1073.8
2019-05-28,14:45:00,DRY,2.45,16.30,33.5,774.00,1063.7
2019-05-28,14:50:00,DRY,3.33,17.00,33.0,774.00,1055.1
2019-05-28,14:55:00,DRY,1.15,16.45,33.5,774.00,1046.0
2019-05-28,15:00:00,DRY,2.90,16.23,36.0,774.00,1036.9
2019-05-28,15:05:00,DRY,2.75,16.30,37.0,774.00,1029.4
2019-05-28,15:10:00,DRY,2.17,15.93,36.0,774.00,1018.4
2019-05-28,15:15:00,DRY,2.90,15.40,40.0,774.00,1004.1
2019-05-28,15:20:00,DRY,3.07,16.33,39.0,774.00,996.0
2019-05-28,15:25:00,DRY,2.15,15.70,37.0,774.00,983.5
2019-05-28,15:30:00,DRY,3.13,15.60,39.0,774.00,970.0
2019-05-28,15:35:00,DRY,2.80,15.50,40.5,774.00,957.8
2019-05-28,15:40:00,DRY,2.00,15.93,40.3,774.00,945.2
2019-05-28,15:45:00,DRY,2.35,15.95,41.5,774.00,934.2
2019-05-28,15:50:00,DRY,1.63,15.50,41.3,774.00,919.0
2019-05-28,15:55:00,DRY,3.20,15.85,41.0,774.00,906.2
2019-05-28,16:00:00,DRY,3.13,15.37,42.7,774.00,889.5
2019-05-28,16:05:00,DRY,2.60,15.35,42.5,774.00,878.6
2019-05-28,16:10:00,DRY,2.53,15.07,41.7,774.00,859.5
2019-05-28,16:15:00,DRY,2.35,14.75,43.0,774.00,848.3
2019-05-28,16:20:00,DRY,2.30,15.00,42.3,774.00,832.7
2019-05-28,16:25:00,DRY,1.90,14.80,41.0,774.00,816.1
2019-05-28,16:30:00,DRY,2.43,15.10,39.7,774.00,798.1
2019-05-28,16:35:00,DRY,2.90,14.30,41.5,774.00,785.7
2019-05-28,16:40:00,DRY,2.50,14.40,40.7,774.00,766.7
2019-05-28,16:45:00,DRY,2.60,14.95,36.0,774.00,747.6
2019-05-28,16:50:00,DRY,2.13,14.97,34.0,774.00,732.7
2019-05-28,16:55:00,DRY,3.10,15.25,39.0,774.00,713.0
2019-05-28,17:00:00,DRY,1.73,15.17,39.0,774.00,695.6
2019-05-28,17:05:00,DRY,3.55,15.10,34.5,774.00,676.1
2019-05-28,17:10:00,DRY,3.17,14.97,35.3,774.00,659.7
2019-05-28,17:15:00,DRY,2.15,15.05,33.0,774.00,639.8
2019-05-28,17:20:00,DRY,2.93,15.47,32.3,774.00,620.9
2019-05-28,17:25:00,DRY,2.75,15.15,32.0,774.00,602.4
2019-05-28,17:30:00,DRY,2.70,14.90,34.7,774.00,583.0
2019-05-28,17:35:00,DRY,2.15,15.00,34.5,774.00,565.9
2019-05-28,17:40:00,DRY,2.77,14.87,30.0,774.00,544.9
2019-05-28,17:45:00,DRY,2.10,15.40,33.5,774.00,524.0
2019-05-28,17:50:00,DRY,1.80,15.35,30.5,774.00,503.1
2019-05-28,17:55:00,DRY,2.35,15.25,28.5,774.00,483.9
2019-05-28,18:00:00,DRY,2.43,14.77,33.0,774.00,462.8
2019-05-28,18:05:00,DRY,2.60,14.70,33.0,774.00,442.8
2019-05-28,18:10:00,DRY,1.57,14.97,32.7,774.00,421.5
2019-05-28,18:15:00,DRY,2.25,14.70,31.5,774.00,400.6
2019-05-28,18:20:00,DRY,1.97,14.97,29.7,774.00,381.2
2019-05-28,18:25:00,DRY,2.25,14.80,31.5,774.00,360.8
2019-05-28,18:30:00,DRY,1.60,14.17,32.3,774.00,339.0
2019-05-28,18:35:00,DRY,2.45,14.45,30.0,774.00,317.9
2019-05-28,18:40:00,DRY,1.67,14.33,29.3,774.00,296.6
2019-05-28,18:45:00,DRY,2.05,14.35,30.0,774.00,277.2
2019-05-28,18:50:00,DRY,2.27,14.27,29.0,774.00,255.5
2019-05-28,18:55:00,DRY,2.05,14.30,24.0,774.00,235.8
2019-05-28,19:00:00,DRY,1.77,14.13,28.3,774.00,215.2
2019-05-28,19:05:00,DRY,2.05,14.05,26.5,774.00,195.7